Regional Weather Roundup
Issued by NWS

Home | Current Version | Previous Version | Graphics & Text | Print | Product List | Glossary On
Versions: 1 2 3 4 5 6 7 8 9 10 11 12 13 14 15 16 17 18 19 20 21 22 23 24 25 26 27 28 29 30 31 32 33 34 35 36 37 38 39 40 41 42 43 44 45 46 47 48 49 50
000
ASUS43 KDMX 030104
RWRIA

WEATHER ROUNDUP FOR IOWA
NATIONAL WEATHER SERVICE DES MOINES IA
  ISSUED BY NWS QUAD CITIES IA IL
700 PM CST MON MAR 02 2015

NOTE: "FAIR" INDICATES FEW OR NO CLOUDS BELOW 12,000 FEET WITH NO
SIGNIFICANT WEATHER AND/OR OBSTRUCTIONS TO VISIBILITY.

* - THESE STATIONS ARE NOT NWS STATIONS...THUS NOT UNDER NWS
QUALITY CONTROL.  THEY ALSO DO NOT REPORT WEATHER SUCH
AS PRECIPITATION OR FOG.

IAZ001>003-012>014-020>022-031>034-043>046-030200-
   NORTHWEST IOWA

CITY           SKY/WX    TMP DP  RH WIND       PRES   REMARKS
CARROLL *      CLOUDY    28  21  74 SE18      30.13F WCI  16
CHEROKEE *     CLOUDY    29  22  76 SE13      30.11S WCI  18
DENNISON *     CLOUDY    30  21  69 SE14      30.08F WCI  20
LE MARS *      CLOUDY    32  23  69 SE13G18   30.07F WCI  22
ORANGE CITY *  CLOUDY    30  21  69 SE10      30.05F WCI  21
SHELDON *      CLOUDY    28  21  74 SE17      30.06F WCI  16
SIOUX CITY     CLOUDY    34  23  64 SE13      30.05F WCI  25
SPENCER        CLOUDY    27  19  72 SE17      30.10F WCI  14
STORM LAKE *   CLOUDY    27  19  74 SE15      30.10F WCI  15
$$

IAZ055>058-069>071-079>083-090>094-030200-
   SOUTHWEST IOWA

CITY           SKY/WX    TMP DP  RH WIND       PRES   REMARKS
ATLANTIC *     CLOUDY    34  19  55 SE12      30.12F WCI  25
AUDUBON *      CLOUDY    28  19  69 SE9       30.13F WCI  20
CLARINDA *     MOCLDY    34  18  51 SE9       30.15F WCI  26
COUNCIL BLFS * CLOUDY    34  23  64 SE13      30.08F WCI  25
CRESTON *      CLOUDY    28  19  69 SE9       30.15F WCI  20
HARLAN *       CLOUDY    32  23  69 SE10      30.13F WCI  24
LAMONI         CLOUDY    31  21  66 SE7       30.18F WCI  24
SHENANDOAH *   MOCLDY    34  18  51 SE14      30.13F WCI  24
$$

IAZ047>049-059>061-072>074-084-030200-
   CENTRAL IOWA

CITY           SKY/WX    TMP DP  RH WIND       PRES   REMARKS
AMES           CLOUDY    27  17  66 SE10      30.20F WCI  17
ANKENY *       CLOUDY    28  19  69 SE13      30.20F WCI  18
BOONE *        CLOUDY    27  21  80 SE16      30.16F WCI  14
CHARITON *     MOCLDY    30  18  59 SE14      30.18F WCI  20
DES MOINES     MOCLDY    30  17  58 E9        30.19F WCI  22
GRINNELL *     CLOUDY    26  19  76 E10       30.22F WCI  16
KNOXVILLE *    MOCLDY    28  16  59 SE10      30.19F WCI  19
MARSHALLTOWN   CLOUDY    24  16  71 SE12      30.21F WCI  13
NEWTON *       CLOUDY    27  18  69 SE10G17   30.21F WCI  17
PELLA *        CLOUDY    29  22  76 SE9       30.23F WCI  20
PERRY *          N/A     30  22  73 SE13      30.16F WCI  20
$$

IAZ004>006-015-016-023>025-035-036-030200-
   NORTH CENTRAL IOWA

CITY           SKY/WX    TMP DP  RH WIND       PRES   REMARKS
ALGONA *       CLOUDY    25  19  80 SE14      30.16F WCI  13
CLARION *      CLOUDY    23  19  86 SE14G20   30.18F WCI  11
ESTHERVILLE    CLOUDY    24  19  81 SE16      30.12F WCI  11
FORT DODGE *   CLOUDY    27  18  69 SE10      30.17F WCI  17
MASON CITY     CLOUDY    20  13  74 SE13      30.21F WCI   7
FOREST CITY *  FAIR      23  14  68 SE10      30.18F WCI  12
WEBSTER CITY * CLOUDY    25  19  80 SE16      30.16F WCI  12
IOWA FALLS *   CLOUDY    23  18  81 SE10      30.21F WCI  12
$$

IAZ007>011-017>019-026>030-037>042-050>054-066-030200-
   NORTHEAST IOWA

CITY           SKY/WX    TMP DP  RH WIND       PRES   REMARKS
CEDAR RAPIDS   CLOUDY    25  16  68 SE7       30.26F WCI  17
CHARLES CITY * CLOUDY    21  14  73 SE10      30.23F WCI  10
CLINTON *      CLOUDY    25  18  74 SE7       30.35F WCI  17
DECORAH *      CLOUDY    23  12  63 CALM      30.24F
DUBUQUE        CLOUDY    23  15  71 S9        30.29F WCI  13
MONTICELLO *   CLOUDY    25  19  80 SE8       30.29F WCI  16
OELWEIN *      CLOUDY    23  18  80 SE9       30.25F WCI  13
WATERLOO       CLOUDY    23  13  65 SE10      30.24F WCI  12
$$

IAZ064-065-067-068-078-030200-
   EAST CENTRAL IOWA

CITY           SKY/WX    TMP DP  RH WIND       PRES   REMARKS
DAVENPORT      CLOUDY    26  16  65 SE7       30.31F WCI  18
IOWA CITY      CLOUDY    27  17  66 E7        30.31F WCI  19
MT. PLEASANT * PTCLDY    26  18  72 E8        30.28F WCI  17
MUSCATINE *    CLOUDY    28  16  59 SE5       30.32F WCI  23
QUAD CITIES    CLOUDY    27  17  66 SE7       30.32F WCI  19
$$

IAZ062-063-075>077-085>089-095>099-030200-
   SOUTHEAST IOWA

CITY           SKY/WX    TMP DP  RH WIND       PRES   REMARKS
BURLINGTON     CLOUDY    27  19  72 E9        30.28F WCI  18
FAIRFIELD *    MOCLDY    27  18  69 SE8       30.25F WCI  18
FORT MADISON * MOCLDY    28  19  69 E7        30.27F WCI  21
KEOKUK *       CLOUDY    28  21  74 E7        30.27F WCI  21
OSKALOOSA *    CLOUDY    28  19  69 SE9       30.23F WCI  19
CENTERVILLE *  FAIR      28  19  69 E9        30.22F WCI  20
OTTUMWA        MOCLDY    27  19  72 SE10      30.23F WCI  17
WASHINGTON *   CLOUDY    28  25  86 E12       30.27F WCI  18
$$

ABBREVIATIONS USED IN REMARKS
   TC - TEMPERATURES IN CELSIUS
  WCI - WIND CHILL INDEX
   HX - HEAT INDEX
  VSB - VISIBILITY
$$


USA.gov is the U.S. government's official web portal to all federal, state and local government web resources and services.